Other Public Products
Issued by NWS Grand Forks, ND

Home | Current Version | Previous Version | Text Only | Print | Product List | Glossary Off
Versions: 1 2 3 4 5 6 7 8 9 10 11 12 13 14 15 16 17 18 19 20 21 22 23 24 25 26 27 28 29 30 31 32 33 34 35 36 37 38 39 40 41 42 43 44 45 46 47 48 49 50

000
FPUS83 KFGF 172331
OPUFGF
PRAIRIE TO PINES WEATHER ROUNDUP
NATIONAL WEATHER SERVICE EASTERN NORTH DAKOTA/GRAND FORKS ND
600 PM CDT FRI APR 17 2015

 **SATELLITE DATA USED TO AUGMENT SKY COVER AT AUTOMATED STATIONS**
 *****  WEATHER ACROSS EASTERN NORTH DAKOTA  *****

CITY           SKY/WX    TMP DP  RH WIND       PRES   REMARKS
GRAND FORKS    SUNNY     69  30  23 N25G31    30.01R
GRAND FORKS AF SUNNY     70  31  23 NE25G32   30.02R
GRAND CITY NWS   N/A     64 N/A N/A N14         N/A
BUXTON           N/A     74  27  17 CALM        N/A
DEVILS LAKE    SUNNY     66  21  18 N18G25    30.06R
FARGO          SUNNY     76  17  11 NW7       30.01F
WAHPETON ARPT  PTCLDY    72  12  10 NW10      30.03F
$$

 *****  WEATHER ACROSS CENTRAL AND WESTERN NORTH DAKOTA  *****

CITY           SKY/WX    TMP DP  RH WIND       PRES   REMARKS
JAMESTOWN      MOSUNNY   74  22  14 N8        30.02F
BISMARCK       PTSUNNY   72  25  17 VRB5      30.06F
MINOT          SUNNY     66  27  23 N16G24    30.07F
MINOT AFB      SUNNY     65  28  24 NE15      30.07F
GARRISON         N/A     71  26  18 NE10G20   30.07S
WILLISTON      SUNNY     70  25  18 N9        30.07F
DICKINSON      MOSUNNY   69  18  14 E7        30.07F
HETTINGER      MOSUNNY   67  21  17 CALM      30.09F
$$

 *****  OTHER OBSERVATIONS NORTHEAST NORTH DAKOTA  *****

CITY           SKY/WX    TMP DP  RH WIND       PRES   REMARKS
WALHALLA       FAIR      61  25  25 N15G28    30.10R
LANGDON        FAIR      61  28  29 N21G28    30.08R
CAVALIER       FAIR      63  19  19 N17G32    30.08R
GRAFTON        FAIR      64  21  19 N22G33    30.06R
CANDO          FAIR      66  18  15 N15       30.08S
FORT TOTTEN    NOT AVBL
ROLLA          FAIR      61  23  23 N16       30.10S
RUGBY          FAIR      64  25  22 N17       30.07S
 ***** THE ABOVE OBSERVATIONS ARE NON NWS ARE NOT QUALITY
        CONTROLLED AND MAY MIS-REPORT RAIN FOR SNOW...
$$

 *****  OTHER OBSERVATIONS SOUTHEAST NORTH DAKOTA *****

CITY           SKY/WX    TMP DP  RH WIND       PRES   REMARKS
COOPERSTOWN    NOT AVBL
VALLEY CITY    FAIR      72  25  17 NW6       30.03F
OAKES            N/A     72  23  16 NW10      30.05S
GWINNER        CLEAR     73  23  15 N8        30.06S
SHEYENNE NWR     N/A     73  13  10 N9        29.95S
BUFFALO        NOT AVBL
WYNDMERE         N/A     73  10   9 NW10        N/A
 ***** THE ABOVE OBSERVATIONS ARE NON NWS ARE NOT QUALITY
       CONTROLLED AND MAY MIS-REPORT RAIN FOR SNOW...
$$

  *****  WEATHER ACROSS NORTHERN MINNESOTA  *****

CITY           SKY/WX    TMP DP  RH WIND       PRES   REMARKS
FLAG ISLAND    SUNNY     52  28  40 NW23      30.04R
WARROAD        SUNNY     63  28  27 NW15G23   30.05R
ROSEAU         SUNNY     64  25  22 N21G30    30.04R
HALLOCK        SUNNY     64  12  13 N25G32    30.05R
THF RVR FALLS  SUNNY     64  23  20 N21G26    30.04R
HALSTAD          N/A     76  21  13 N16         N/A
FOSSTON        SUNNY     72  28  20 N23G30    30.01R
BAUDETTE       SUNNY     62  27  26 N18G26    30.01R
WASKISH        SUNNY     64  28  25 NW15G23   30.00R
CROOKSTON      SUNNY     66  27  22 N23G31    30.03R
$$
  *****  WEATHER ACROSS CENTRAL AND WEST MINNESOTA  *****

CITY           SKY/WX    TMP DP  RH WIND       PRES   REMARKS
BEMIDJI        SUNNY     71  25  17 NW17G25   29.98F
PARK RAPIDS    SUNNY     73  16  11 NW13      30.01S
WADENA         SUNNY     70  27  19 W8        30.03S
DETROIT LAKES  SUNNY     72  19  14 W13G18    30.03F
MOORHEAD       SUNNY     75  18  11 NW12G23   30.01F
FERGUS FALLS   MOSUNNY   73   7   7 N7G16     30.03S
ELBOW LAKE     FAIR      70  22  16 W6        30.04S
MORRIS MN      MOSUNNY   73  21  14 NW5       30.04S
STAPLES        SUNNY     70  19  14 W13       30.03S
WHEATON        MOSUNNY   70  23  17 NW8       30.06S
$$
  *****  WEATHER ELSEWHERE ACROSS MINNESOTA  *****

CITY           SKY/WX    TMP DP  RH WIND       PRES   REMARKS
DULUTH         SUNNY     71  21  15 W15G24    29.97S
INTRNTL FALLS  SUNNY     67  27  22 NW20G32   29.96R
ELY            SUNNY     66  19  16 NW21G32   29.94R
CLOQUET        SUNNY     72   9   8 W13G21    29.98S
BRAINERD       SUNNY     71  21  15 W13       30.01F
HIBBING        SUNNY     70  21  15 NW15G24   29.97S
ALEXANDRIA     MOSUNNY   70  18  13 W12       30.06S
SAINT CLOUD    SUNNY     73  24  16 W9        30.02S
MINNEAPOLIS    MOSUNNY   74  32  21 W8        30.01S
$$

  *****  WEATHER ACROSS SOUTH DAKOTA  *****

CITY           SKY/WX    TMP DP  RH WIND       PRES   REMARKS
SIOUX FALLS    PTSUNNY   74  42  31 N5        30.03S
BROOKINGS      SUNNY     72  27  18 N8        30.05F
WATERTOWN      MOSUNNY   70  19  14 VRB6      30.07S
HURON          MOSUNNY   74  30  19 N8        30.05S
SISSETON         N/A     73  14  10 N8        30.05S
ABERDEEN       MOSUNNY   75  22  13 N12       30.06F
MITCHELL       PTSUNNY   74  35  24 N9        30.04F
PIERRE         PTSUNNY   70  31  23 SE3       30.06S
MOBRIDGE       PTSUNNY   71  23  16 VRB6      30.05F
RAPID CITY     CLOUDY    52  39  61 SW9       30.12F
$$

  *****  SOME WEATHER IN NEARBY STATES *****

CITY           SKY/WX    TMP DP  RH WIND       PRES   REMARKS
GLASGOW MT     SUNNY     70  22  16 MISG      30.04F
GREAT FALLS MT SUNNY     68  29  23 S8        30.00F
CHEYENNE WY    LGT RAIN  35  32  88 NW18G24   30.03F WCI  24
SCOTTSBLUFF NE LGT RAIN  48  47  96 NE28G36   30.01F FOG
OMAHA NE       PTSUNNY   76  52  43 SE8       29.98S
DES MOINES IA  CLOUDY    78  48  34 S3        29.99F
DAVENPORT IA   SUNNY     78  46  32 SW8       29.99F
CHICAGO IL     PTSUNNY   76  46  34 W13       29.98S
EAU CLAIRE WI  SUNNY     74  38  27 NW8       29.99S
LA CROSSE WI   SUNNY     79  43  27 NW7       29.97F
$$

  *****  SOME NATIONAL WEATHER *****

CITY           SKY/WX    TMP DP  RH WIND       PRES   REMARKS
LA GUARDIA NY  MOCLDY    71  52  50 SW9       29.90R
RALEIGH NC     MOCLDY    72  63  73 W6        29.99S
ATLANTA GA     RAIN      62  60  93 E5        30.01F FOG
NEW ORLEANS LA PTSUNNY   81  68  64 S6        29.91R
OKLAHOMA CITY  CLOUDY    72  57  59 E7        29.93F
ALBUQUERQUE NM CLOUDY    51  18  27 S9G20     30.01S
SALT LAKE CITY PTSUNNY   60  36  40 NW9       30.02F
LOS ANGELES CA SUNNY     70  47  43 W21G30    29.97F
BOISE ID       SUNNY     71  26  18 NW12      30.05F
SEATTLE WA     MOSUNNY   66  26  22 NW17      30.25S
$$

*** WEATHER ACROSS MANITOBA...SASKATCHEWAN AND ONTARIO ***
                ***ONTARIO***

CITY           SKY/WX    TMP DP  RH WIND       PRES   REMARKS
GERALDTON      LGT RAIN  54  32  43 SW10      29.82F
THUNDER BAY    MOSUNNY   66  23  19 SW16      29.84F
SIOUX LOOKOUT  MOSUNNY   52  32  46 N21G33    29.98R
TORONTO        MOSUNNY   68  39  34 W13G18    29.95R
BIG TROUT LK   CLOUDY    41  32  70 N8        30.00R
PICKLE LAKE    CLOUDY    37  34  87 N6        29.99R
DRYDEN         SUNNY     55  30  38 N21G35    29.99R
KENORA         MOSUNNY   55  30  38 N15G28    30.05R
$$
                *** MANITOBA***

CITY           SKY/WX    TMP DP  RH WIND       PRES   REMARKS
BRANDON        MOSUNNY   63  23  22 N9        30.12R
DAUPHIN        SUNNY     55  36  47 NE12G17   30.15S
ISLAND LAKE    LGT RAIN  41  34  75 NW24G37   30.10R
PILOT MOUND      N/A     61  27  27 N16G23      N/A
THE PAS        MOSUNNY   55  27  33 NE3       30.12S
THOMPSON       MOSUNNY   54  27  35 N12G17    30.06R
WINNIPEG       SUNNY     59  32  36 NE20      30.12R
LYNN LAKE      SUNNY     50  19  29 NW6       30.08R
CHURCHILL      MOSUNNY   25  18  74 N20       30.13R WCI  11
GILLAM         MOSUNNY   37  32  81 NE5       30.09R
$$
                ***SASKATCHEWAN***

CITY           SKY/WX    TMP DP  RH WIND       PRES   REMARKS
ESTEVAN        MOSUNNY   63  23  22 NE6       30.11F
KINDERSLEY     MOSUNNY   68  27  21 S21G30    29.96F
LLOYDMINSTER   PTSUNNY   61  25  25 S12       29.93F
PRINCE ALBERT  PTSUNNY   59  21  23 S9        30.08
REGINA         MOSUNNY   61  23  23 NW3       30.12F


USA.gov is the U.S. government's official web portal to all federal, state and local government web resources and services.